Tracking 19831 objects as of 23-Aug-2019
HD Live streaming from Space Station
objects crossing your sky now

RADUGA 25

Track RADUGA 25 now!
RADUGA 25 is classified as:


NORAD ID: 20499
Int'l Code: 1990-016A
Perigee: 35,806.9 km
Apogee: 35,818.2 km
Inclination: 14.7 °
Period: 1,437.1 minutes
Semi major axis: 42183 km
RCS: 7.9432 m2 (large)
Launch date: February 15, 1990
Source: Commonwealth of Independent States (former USSR) (CIS)
Launch site: TYURATAM MISSILE AND SPACE COMPLEX (TTMTR)
aabbcc
Your satellite tracking list
Your tracking list is empty




NASA's NSSDC Master Catalog

Two Line Element Set (TLE):
1 20499U 90016A   19234.50088080 +.00000106 +00000-0 +00000-0 0  9995
2 20499 014.6651 354.8429 0001336 020.3489 343.3481 01.00204807107931
Source of the keplerian elements: AFSPC